| time (UTC) | temp C | wind direction | speed KPH | gust KPH | rain 1hr cm | rain 24hr cm | rain mn cm | humidity % | barometer mb |
| 20260507000014 | 7 | 295 | 0.0 | 0.0 | 0.00 | 0.94 | 0.94 | 90 | 1010.8 |
| 20260506234511 | 7 | 265 | 0.0 | 0.0 | 0.00 | 0.94 | 0.94 | 90 | 1010.6 |
| 20260506233011 | 7 | 269 | 0.0 | 0.0 | 0.00 | 0.94 | 0.94 | 90 | 1010.5 |
| 20260506231512 | 8 | 231 | 0.0 | 0.0 | 0.00 | 0.94 | 0.94 | 90 | 1010.4 |
| 20260506230006 | 8 | 271 | 0.0 | 0.0 | 0.00 | 0.94 | 0.94 | 90 | 1010.1 |
| 20260506224504 | 8 | 290 | 0.0 | 0.0 | 0.00 | 0.97 | 0.94 | 90 | 1010.1 |
| 20260506223002 | 8 | 146 | 0.0 | 0.0 | 0.00 | 0.97 | 0.94 | 91 | 1009.7 |
| 20260506221559 | 8 | 252 | 0.0 | 0.0 | 0.00 | 0.97 | 0.94 | 92 | 1009.6 |
| 20260506214610 | 8 | 282 | 0.0 | 0.0 | 0.00 | 0.97 | 0.94 | 92 | 1009.6 |
| 20260506213055 | 8 | 266 | 0.0 | 0.0 | 0.05 | 0.97 | 0.94 | 92 | 1009.2 |
| 20260506211554 | 8 | 283 | 0.0 | 0.0 | 0.05 | 0.97 | 0.94 | 93 | 1008.9 |
| 20260506210054 | 8 | 63 | 0.0 | 0.0 | 0.05 | 0.97 | 0.94 | 94 | 1008.6 |
| 20260506204559 | 8 | 172 | 0.0 | 0.0 | 0.08 | 0.99 | 0.94 | 94 | 1008.4 |
| 20260506203052 | 9 | 233 | 0.0 | 0.0 | 0.05 | 0.94 | 0.89 | 94 | 1008.0 |
| 20260506201550 | 9 | 179 | 0.0 | 0.0 | 0.08 | 0.94 | 0.89 | 94 | 1007.4 |
| 20260506200045 | 9 | 351 | 0.0 | 0.0 | 0.08 | 0.94 | 0.89 | 94 | 1007.5 |
| 20260506194557 | 10 | 114 | 0.0 | 0.0 | 0.05 | 1.17 | 0.86 | 94 | 1007.5 |
| 20260506193043 | 10 | 106 | 0.0 | 0.0 | 0.03 | 1.14 | 0.84 | 94 | 1007.3 |
| 20260506191541 | 10 | 281 | 0.0 | 0.0 | 0.03 | 1.12 | 0.81 | 93 | 1007.2 |
| 20260506190043 | 10 | 261 | 0.0 | 0.0 | 0.03 | 1.12 | 0.81 | 93 | 1006.9 |
| 20260506184539 | 10 | 293 | 0.0 | 0.0 | 0.05 | 1.12 | 0.81 | 93 | 1006.6 |
| 20260506183039 | 11 | 304 | 0.0 | 0.0 | 0.05 | 1.12 | 0.81 | 92 | 1006.5 |
| 20260506181543 | 11 | 249 | 0.0 | 0.0 | 0.03 | 1.09 | 0.79 | 91 | 1006.1 |
| 20260506180042 | 12 | 258 | 0.0 | 0.0 | 0.03 | 1.09 | 0.79 | 90 | 1005.8 |
| 20260506174537 | 15 | 225 | 0.0 | 0.0 | 0.00 | 1.07 | 0.76 | 87 | 1005.4 |
| 20260506173036 | 15 | 227 | 0.0 | 0.0 | 0.00 | 1.07 | 0.76 | 88 | 1005.0 |
| 20260506171550 | 15 | 280 | 0.0 | 4.8 | 0.00 | 1.07 | 0.76 | 87 | 1005.1 |
| 20260506170038 | 15 | 254 | 0.0 | 0.0 | 0.00 | 1.07 | 0.76 | 88 | 1005.2 |
| 20260506164533 | 15 | 284 | 0.0 | 0.0 | 0.03 | 1.07 | 0.76 | 90 | 1005.4 |
| 20260506163028 | 15 | 288 | 0.0 | 1.6 | 0.03 | 1.07 | 0.76 | 90 | 1005.3 |
| 20260506161522 | 15 | 287 | 0.0 | 0.0 | 0.05 | 1.07 | 0.76 | 89 | 1005.3 |
| 20260506160022 | 15 | 309 | 0.0 | 0.0 | 0.08 | 1.07 | 0.76 | 89 | 1005.4 |
| 20260506154520 | 15 | 99 | 0.0 | 0.0 | 0.08 | 1.04 | 0.71 | 90 | 1005.4 |
| 20260506153018 | 14 | 285 | 0.0 | 0.0 | 0.10 | 1.04 | 0.71 | 90 | 1005.4 |
| 20260506151529 | 14 | 236 | 0.0 | 0.0 | 0.08 | 1.02 | 0.71 | 90 | 1005.7 |
| 20260506150015 | 14 | 267 | 0.0 | 0.0 | 0.08 | 0.99 | 0.69 | 90 | 1005.4 |
| 20260506144514 | 13 | 271 | 0.0 | 0.0 | 0.10 | 0.97 | 0.66 | 92 | 1005.2 |
| 20260506143013 | 14 | 220 | 0.0 | 0.0 | 0.00 | 0.00 | 0.64 | 94 | 1005.5 |
| 20260506141511 | 13 | 220 | 0.0 | 0.0 | 0.20 | 0.94 | 0.64 | 93 | 1005.5 |
| 20260506140009 | 13 | 219 | 0.0 | 0.0 | 0.25 | 0.91 | 0.61 | 93 | 1005.5 |
| 20260506134507 | 13 | 236 | 0.0 | 0.0 | 0.30 | 0.86 | 0.56 | 92 | 1005.6 |
| 20260506133005 | 13 | 274 | 0.0 | 0.0 | 0.36 | 0.81 | 0.51 | 91 | 1006.0 |
| 20260506131510 | 13 | 98 | 0.0 | 0.0 | 0.33 | 0.71 | 0.43 | 90 | 1006.3 |
| 20260506130004 | 13 | 78 | 0.0 | 0.0 | 0.28 | 0.66 | 0.36 | 92 | 1006.1 |
| 20260506124501 | 13 | 304 | 0.0 | 0.0 | 0.15 | 0.53 | 0.23 | 94 | 1006.5 |
| 20260506123100 | 12 | 230 | 0.0 | 0.0 | 0.08 | 0.46 | 0.15 | 95 | 1006.1 |
| 20260506121556 | 12 | 91 | 0.0 | 0.0 | 0.03 | 0.41 | 0.10 | 95 | 1006.0 |
| 20260506120052 | -17 | 0.0 | 0.0 | 0.00 | 0.38 | 0.08 | 1006.0 | ||
| 20260506114556 | -17 | 0.0 | 0.0 | 0.00 | 0.38 | 0.08 | 1006.4 | ||
| 20260506113049 | -17 | 0.0 | 0.0 | 0.03 | 0.38 | 0.08 | 1006.3 | ||
| 20260506111540 | -17 | 0.0 | 0.0 | 0.05 | 0.38 | 0.08 | 1006.3 | ||
| 20260506110037 | -17 | 0.0 | 0.0 | 0.08 | 0.38 | 0.08 | 1006.4 | ||
| 20260506104540 | 11 | 93 | 0.0 | 0.0 | 0.08 | 0.38 | 0.08 | 93 | 1006.6 |
| 20260506103036 | 11 | 91 | 0.0 | 0.0 | 0.05 | 0.36 | 0.05 | 93 | 1006.4 |
| 20260506101539 | 11 | 91 | 0.0 | 0.0 | 0.03 | 0.33 | 0.03 | 93 | 1006.2 |
| 20260506100032 | 11 | 91 | 0.0 | 0.0 | 0.00 | 0.30 | 0.00 | 92 | 1006.1 |
| 20260506094530 | 11 | 92 | 0.0 | 0.0 | 0.00 | 0.30 | 0.00 | 92 | 1005.9 |
| 20260506093028 | 11 | 91 | 0.0 | 0.0 | 0.00 | 0.30 | 0.00 | 91 | 1005.9 |
| 20260506091526 | 11 | 91 | 0.0 | 0.0 | 0.00 | 0.30 | 0.00 | 90 | 1006.1 |
| 20260506090024 | 11 | 91 | 0.0 | 0.0 | 0.00 | 0.30 | 0.00 | 90 | 1006.2 |
| 20260506084532 | 11 | 91 | 0.0 | 0.0 | 0.00 | 0.30 | 0.00 | 88 | 1006.7 |
| 20260506083020 | 11 | 91 | 0.0 | 0.0 | 0.00 | 0.30 | 0.00 | 87 | 1006.7 |
| 20260506081523 | 11 | 91 | 0.0 | 0.0 | 0.00 | 0.30 | 0.00 | 86 | 1006.5 |
| 20260506073015 | 12 | 91 | 0.0 | 0.0 | 0.00 | 0.30 | 0.00 | 87 | 1006.5 |
| 20260506071514 | 12 | 91 | 0.0 | 0.0 | 0.00 | 0.30 | 0.00 | 87 | 1006.4 |
| 20260506061506 | 12 | 91 | 0.0 | 0.0 | 0.00 | 0.30 | 0.00 | 87 | 1007.0 |
| 20260506044632 | 12 | 281 | 0.0 | 0.0 | 0.00 | 0.30 | 0.00 | 87 | 1008.2 |
| 20260506043054 | 12 | 281 | 0.0 | 0.0 | 0.00 | 0.30 | 0.00 | 87 | 1008.0 |
| 20260506041551 | 13 | 281 | 0.0 | 0.0 | 0.00 | 0.30 | 0.00 | 86 | 1008.1 |
| 20260506040048 | 13 | 281 | 0.0 | 0.0 | 0.00 | 0.30 | 0.00 | 86 | 1008.4 |
| 20260506034546 | 13 | 281 | 0.0 | 0.0 | 0.00 | 0.30 | 0.30 | 86 | 1008.7 |
| 20260506033044 | 13 | 263 | 0.0 | 0.0 | 0.00 | 0.30 | 0.30 | 86 | 1008.6 |
| 20260506031542 | 13 | 263 | 0.0 | 0.0 | 0.00 | 0.30 | 0.30 | 87 | 1008.4 |
| 20260506030040 | 13 | 115 | 0.0 | 0.0 | 0.00 | 0.30 | 0.30 | 86 | 1008.4 |
| 20260506024536 | 15 | 125 | 0.0 | 0.0 | 0.00 | 0.30 | 0.30 | 87 | 1008.3 |
| 20260506023043 | 15 | 91 | 0.0 | 0.0 | 0.00 | 0.30 | 0.30 | 91 | 1008.2 |
| 20260506021534 | 15 | 98 | 0.0 | 0.0 | 0.00 | 0.30 | 0.30 | 92 | 1007.9 |
| 20260506020031 | 15 | 98 | 0.0 | 0.0 | 0.00 | 0.30 | 0.30 | 92 | 1007.7 |
| 20260506014525 | 15 | 98 | 0.0 | 0.0 | 0.00 | 0.30 | 0.30 | 92 | 1007.6 |
| 20260506013024 | 15 | 98 | 0.0 | 0.0 | 0.00 | 0.30 | 0.30 | 92 | 1007.5 |
| 20260506011522 | 15 | 263 | 0.0 | 0.0 | 0.00 | 0.30 | 0.30 | 92 | 1007.1 |
| 20260506010040 | 15 | 263 | 0.0 | 0.0 | 0.00 | 0.30 | 0.30 | 91 | 1006.9 |
| 20260506004525 | 15 | 263 | 0.0 | 0.0 | 0.00 | 0.30 | 0.30 | 91 | 1006.7 |
| 20260506003020 | 15 | 263 | 0.0 | 0.0 | 0.00 | 0.30 | 0.30 | 91 | 1006.3 |
| 20260506001519 | 16 | 263 | 0.0 | 0.0 | 0.00 | 0.30 | 0.30 | 91 | 1006.3 |